Regional Weather Roundup
Issued by NWS

Home | Current Version | Previous Version | Graphics & Text | Print | Product List | Glossary On
Versions: 1 2 3 4 5 6 7 8 9 10 11 12 13 14 15 16 17 18 19 20 21 22 23 24 25 26 27 28 29 30 31 32 33 34 35 36 37 38 39 40 41 42 43 44 45 46 47 48 49 50
000
ASUS45 KTFX 172319
RWRMT
MONTANA HOURLY WEATHER ROUNDUP
NATIONAL WEATHER SERVICE GREAT FALLS MT
519 PM MDT THU APR 17 2014

NOTE: "FAIR" INDICATES FEW OR NO CLOUDS BELOW 12000 FEET WITH NO
SIGNIFICANT WEATHER AND/OR OBSTRUCTIONS TO VISIBILITY.

* THESE STATIONS ARE NOT UNDER NWS QUALITY CONTROL. THEY DO NOT
   REPORT WEATHER SUCH AS PRECIPITATION OR FOG.

MTZ001>007-043-180000-
WEST OF THE DIVIDE
CITY           SKY/WX    TMP DP  RH WIND       PRES   REMARKS
KALISPELL      LGT RAIN  48 N/A N/A SE9       29.76F
MISSOULA       CLOUDY    57  37  47 NW9       29.77F
BUTTE          CLOUDY    55  28  35 SW9       29.81F
MULLAN PASS    FOG       34  34 100 VRB3      29.78F VSB M1/4
* ESSEX        N/A       44  41  89 NE2        N/A
* LINCOLN      N/A       51  34  52 W7G18      N/A
* LOOKOUT PASS N/A       41  39  93 S4G9       N/A
* PLAINS APT   CLOUDY    55  37  51 S8        29.81F
* POLSON       N/A       47  42  83 S2G7       N/A
* RONAN APT    CLOUDY    52  43  72 E7         N/A
* SEELEY LAKE  N/A       50  37  61 S2         N/A
* THOMP F APT  CLOUDY    51  20  29 S10G21     N/A
$$

MTZ008-052>055-180000-
SOUTHWEST MONTANA
CITY           SKY/WX    TMP DP  RH WIND       PRES   REMARKS
BOZEMAN        CLOUDY    61  23  23 SW15G25   29.79F
DILLON         CLOUDY    61  23  23 SW10G35   29.78F
W YELLOWSTONE  N/A       51  24  35 SW7G18     N/A
* THREE FORKS  CLOUDY    63  28  27 S10G15     N/A
* BOULDER HILL N/A       50  28  43 S14G20     N/A
* MONIDA PASS  N/A       49  19  30 S17G26     N/A
* RAYNOLDS PAS N/A       46  28  50 S17        N/A
* WHITEHALL    N/A       63  27  26 SW14G24    N/A
* WISE RIVER   N/A       55  29  37 W9G19      N/A
$$

MTZ009>010-012-014-046-048-049-054-180000-
EAST SLOPES AND CENTRAL MONTANA
CITY           SKY/WX    TMP DP  RH WIND       PRES   REMARKS
CUT BANK       MOCLDY    52  34  50 S6        29.73F
GREAT FALLS    CLOUDY    57  30  36 S8        29.74F
HELENA         CLOUDY    61  32  34 W13G24    29.77F
MALMSTROM AFB  CLOUDY    59  28  31 S10       29.72F
* CONRAD       MOCLDY    59  34  39 SW13       N/A
* DEARBORN     N/A       60  30  32 SW11G16    N/A
* EAST GLACIER N/A       42  36  79 W19G29     N/A
* MONARCH      N/A       49  22  35 S7         N/A
* PENDROY      N/A       55  28  35 SW9G18     N/A
* ROGERS PASS  N/A       46  32  58 SE12G19    N/A
* SAINT MARY   N/A       44  35  71 S6         N/A
* SWEET GRASS  N/A       49  37  63 S16G21     N/A
* WHITE SULPH  N/A       54  24  31 SW15G23    N/A
$$

MTZ011-013-016-021-035-040-045-047-050-051-180000-
NORTH CENTRAL MONTANA
CITY           SKY/WX    TMP DP  RH WIND       PRES   REMARKS
HAVRE          CLOUDY    57  32  39 SW13      29.76F
LEWISTOWN      CLOUDY    52  36  55 NE6       29.82F
* CHINOOK      PTCLDY    55  36  49 E6        29.78F
* FORT BENTON  CLOUDY    57  32  39 NE7       29.76F
* CHESTER      N/A       54  34  47 NW1        N/A
* DENTON       N/A       55  29  37 N/A        N/A
* GEYSER       N/A       55  25  31 W3G10      N/A
* JUDITH GAP   N/A       53  24  32 W2         N/A
* LOMA         N/A       57  32  39 SE6G12     N/A
$$

MTZ017>020-022>027-061-062-180000-
NORTHEAST MONTANA
CITY           SKY/WX    TMP DP  RH WIND       PRES   REMARKS
GLASGOW        CLOUDY    55  30  39 SE16G22   29.85F
GLENDIVE       MOCLDY    54  34  47 SE14G21   29.93F
JORDAN         MOCLDY    57  30  36 S10       29.83F
SIDNEY         PTCLDY    48  30  50 SE17G22   30.01F
WOLF POINT     MOCLDY    55  30  39 SE14G20   29.91F
* BEAVER HILL  N/A       49  33  54 E25        N/A
* CIRCLE       N/A       57  35  44 SE7G15     N/A
* LINDSAY DVD  N/A       51  32  48 E14G20     N/A
* NAVAJO       N/A       47  27  46 S19G24     N/A
* SACO         N/A       57  29  34 E15G21     N/A
$$

MTZ028>042-056>058-180000-
SOUTHCENTRAL AND SOUTHEAST MONTANA
CITY           SKY/WX    TMP DP  RH WIND       PRES   REMARKS
BAKER          CLOUDY    54  30  40 SE22      29.94F
BILLINGS       PTCLDY    63  25  24 VRB3      29.81F
LIVINGSTON     CLOUDY    61  25  25 SW22G32   29.80S
MILES CITY     CLOUDY    59  30  33 S7        29.86F
* EKALAKA APT  PTCLDY    54  30  40 E15G21    29.91F
* LAUREL APT   PTCLDY    64  27  25 N/A        N/A
* ROUNDUP APT  MOCLDY    59  27  29 S5         N/A
* HYSHAM       N/A       59  22  24 W7         N/A
* LAME DEER    N/A       54  27  35 S6         N/A
* REED POINT   N/A       62  27  26 E7         N/A
* ROSCOE HILL  N/A       58  10  15 E6G14      N/A
$$

REGIONAL REPORTS...DAKOTAS
CITY           SKY/WX    TMP DP  RH WIND       PRES   REMARKS
WILLISTON      CLOUDY    45  27  49 SE17G24   30.04F
DICKINSON      MOCLDY    43  27  53 SE21      30.03F
CROSBY         PTCLDY    43  25  49 S16G29    30.07F
TIOGA          CLOUDY    41  23  49 SE22G30   30.09F
WATFORD CITY   CLOUDY    41  27  58 SE18G24   30.04F
BISMARCK       CLOUDY    45  19  35 S13       30.16F
GRAND FORKS    PTCLDY    41  12  30 NE7       30.30S
FARGO          CLEAR     45  10  24 CALM      30.27F
BUFFALO SD     PTCLDY    52  30  43 SE21G28   29.91F
RAPID CITY     PTCLDY    54  36  51 SE21G26   29.98F
$$

REGIONAL REPORTS...WYOMING/IDAHO/WASHINGTON
CITY           SKY/WX    TMP DP  RH WIND       PRES   REMARKS
GILLETTE       MOCLDY    61  25  25 SW15G20   29.88F
SHERIDAN       MOCLDY    61  28  29 SE7       29.86F
CODY           PTCLDY    59  21  23 W9G17     29.84F
YELLOWSTONE LA MOCLDY    45  19  35 VRB6      30.00S
SALMON         MOCLDY    63  28  27 N6        29.72F
MULLAN PASS    FOG       34  34 100 VRB3      29.78S VSB M1/4
SAND POINT     N/A       46  46 100 E3        29.78F
SPOKANE        LGT RAIN  48  45  89 S9        29.77F
$$

REGIONAL REPORTS...ALBERTA
CITY           SKY/WX    TMP DP  RH WIND       PRES   REMARKS
CALGARY        CLOUDY    41  34  76 E6        29.69F
LETHBRIDGE     CLOUDY    54  37  53 S15G23    29.69F
MEDICINE HAT   MOCLDY    55  36  49 W5        29.74F
EDMONTON       LGT SNOW  32  27  82 E18       29.83F VSB 3    WCI  21
WATERTON GATE  N/A       50  37  61 SW13       N/A
CARDSTON       N/A       54  36  51 SW9        N/A
MILK RIVER     N/A       52  34  50 S18        N/A
$$

REGIONAL REPORTS...SASKATCHEWAN
CITY           SKY/WX    TMP DP  RH WIND       PRES   REMARKS
SWIFT CURRENT  MOCLDY    50  30  46 S14G23    29.82F
REGINA         CLOUDY    41  23  49 SE23G32   30.05F
VAL MARIE      N/A       54  28  37 SE16G22    N/A
ASSINIBOIA     N/A       46  27  48 SE17G23    N/A
CORONACH       N/A       48  27  44 SE18G24    N/A

$$




USA.gov is the U.S. government's official web portal to all federal, state and local government web resources and services.